This is the latest recevied weather packets stored in our database for station/object OE3MNS-12. If no packets are shown the sender has not sent any weather packets the latest 10 day(s).
| Time | Temp. | Humidity | Pressure | Rain* | Wind** | Luminosity | Snow |
|---|---|---|---|---|---|---|---|
| 1778421321 | 24.44° C | 42% | 1010.3 hPa | 1.02 mm | - | 327 W/m² | - |
| 1778421017 | 24.44° C | 41% | 1010.5 hPa | 1.02 mm | - | 305 W/m² | - |
| 1778420419 | 25° C | 40% | 1010.6 hPa | 1.02 mm | - | 400 W/m² | - |
| 1778419821 | 24.44° C | 41% | 1010.7 hPa | 1.02 mm | - | 656 W/m² | - |
| 1778419517 | 24.44° C | 41% | 1010.8 hPa | 1.02 mm | - | 615 W/m² | - |
| 1778418919 | 24.44° C | 41% | 1010.9 hPa | 1.02 mm | - | 462 W/m² | - |
| 1778418321 | 24.44° C | 41% | 1011.1 hPa | 1.02 mm | - | 452 W/m² | - |
| 1778417721 | 24.44° C | 41% | 1011.3 hPa | 1.02 mm | - | 623 W/m² | - |
| 1778417123 | 24.44° C | 41% | 1011.5 hPa | 1.02 mm | - | 433 W/m² | - |
| 1778416520 | 23.89° C | 42% | 1011.6 hPa | 1.02 mm | - | 576 W/m² | - |
| 1778415921 | 24.44° C | 41% | 1011.8 hPa | 1.02 mm | - | 745 W/m² | - |
| 1778415617 | 24.44° C | 42% | 1011.9 hPa | 1.02 mm | - | 713 W/m² | - |
| 1778415019 | 24.44° C | 41% | 1012.2 hPa | 1.02 mm | - | 659 W/m² | - |
| 1778414421 | 23.89° C | 43% | 1012.3 hPa | 1.02 mm | - | 734 W/m² | - |
| 1778414117 | 23.89° C | 43% | 1012.6 hPa | 1.02 mm | - | 740 W/m² | - |
| 1778413519 | 23.89° C | 41% | 1012.7 hPa | 1.02 mm | - | 710 W/m² | - |
| 1778413217 | 23.89° C | 42% | 1012.8 hPa | 1.02 mm | - | 675 W/m² | - |
| 1778412619 | 23.33° C | 42% | 1013 hPa | 1.02 mm | - | 747 W/m² | - |
| 1778412021 | 22.78° C | 42% | 1013.1 hPa | 1.02 mm | - | 721 W/m² | - |
| 1778411717 | 22.78° C | 42% | 1013.2 hPa | 1.02 mm | - | 712 W/m² | - |
| 1778411119 | 22.78° C | 41% | 1013.5 hPa | 1.02 mm | - | 685 W/m² | - |
| 1778410521 | 22.78° C | 41% | 1013.6 hPa | 1.02 mm | - | 710 W/m² | - |
| 1778409917 | 22.22° C | 42% | 1013.8 hPa | 1.02 mm | - | 713 W/m² | - |
| 1778409319 | 22.22° C | 42% | 1013.9 hPa | 1.02 mm | - | 724 W/m² | - |
| 1778408721 | 22.22° C | 41% | 1014 hPa | 1.02 mm | - | 719 W/m² | - |
* Rain latest hour (hover to see other rain measurements)
** Current wind speed in m/s (hover to see current wind gust speed)